FW0924 Weather Reports


Display with metric or nautical units.
time (UTC)temp
F
wind
direction
speed
MPH
gust
MPH
rain 1hr
in
rain 24hr
in
rain mn
in
humidity
%
barometer
mb
20180821081526 54 285 1.0 5.0 0.00 0.00 0.00 45 1011.7
20180821081025 55 297 2.0 7.0 0.00 0.00 0.00 45 1011.6
20180821080524 55 300 2.0 5.0 0.00 0.00 0.00 44 1011.6
20180821080023 55 313 2.0 6.0 0.00 0.00 0.00 44 1011.7
20180821075521 55 250 2.0 6.0 0.00 0.00 0.00 44 1011.6
20180821075020 56 280 1.0 4.0 0.00 0.00 0.00 43 1011.6
20180821074519 56 240 4.0 11.0 0.00 0.00 0.00 43 1011.4
20180821074018 56 277 4.0 9.0 0.00 0.00 0.00 43 1011.5
20180821073517 56 235 3.0 9.0 0.00 0.00 0.00 43 1011.5
20180821073016 56 288 2.0 5.0 0.00 0.00 0.00 43 1011.5
20180821072614 56 289 3.0 6.0 0.00 0.00 0.00 43 1011.4
20180821072113 57 263 2.0 5.0 0.00 0.00 0.00 43 1011.4
20180821071612 57 237 4.0 12.0 0.00 0.00 0.00 42 1011.4
20180821071111 57 262 2.0 8.0 0.00 0.00 0.00 42 1011.5
20180821070610 57 273 4.0 8.0 0.00 0.00 0.00 41 1011.4
20180821070109 57 292 4.0 11.0 0.00 0.00 0.00 41 1011.4
20180821065609 58 286 5.0 10.0 0.00 0.00 0.00 41 1011.5
20180821065107 59 293 4.0 7.0 0.00 0.00 0.00 39 1011.4
20180821064605 58 297 4.0 9.0 0.00 0.00 0.00 40 1011.4
20180821064104 59 255 5.0 11.0 0.00 0.00 0.00 37 1011.3
20180821063604 60 256 4.0 17.0 0.00 0.00 0.00 36 1011.3
20180821063102 60 271 3.0 9.0 0.00 0.00 0.00 36 1011.3
20180821062601 60 297 6.0 15.0 0.00 0.00 0.00 35 1011.2
20180821062100 61 266 5.0 9.0 0.00 0.00 0.00 34 1011.2
20180821061559 60 277 4.0 15.0 0.00 0.00 0.00 34 1011.2
20180821061058 61 232 6.0 14.0 0.00 0.00 0.00 34 1011.3
20180821060556 61 272 4.0 9.0 0.00 0.00 0.00 34 1011.2
20180821060054 61 262 6.0 15.0 0.00 0.00 0.00 33 1011.2
20180821055553 62 299 4.0 11.0 0.00 0.00 0.00 32 1011.2
20180821055051 62 287 4.0 9.0 0.00 0.00 0.00 32 1011.2
20180821054550 62 299 4.0 10.0 0.00 0.00 0.00 32 1011.1
20180821054049 62 285 4.0 9.0 0.00 0.00 0.00 33 1011.2
20180821053548 62 252 5.0 11.0 0.00 0.00 0.00 32 1011.2
20180821053047 62 240 6.0 15.0 0.00 0.00 0.00 31 1011.2
20180821052545 62 259 6.0 11.0 0.00 0.00 0.00 31 1011.2
20180821052044 62 274 6.0 12.0 0.00 0.00 0.00 31 1011.2
20180821051543 62 248 5.0 11.0 0.00 0.00 0.00 31 1011.3
20180821051042 63 245 7.0 15.0 0.00 0.00 0.00 31 1011.2
20180821050541 63 249 4.0 10.0 0.00 0.00 0.00 31 1011.1
20180821050040 62 255 3.0 7.0 0.00 0.00 0.00 32 1011.1
20180821045539 61 276 6.0 16.0 0.00 0.00 0.00 33 1011.2
20180821045038 61 288 3.0 9.0 0.00 0.00 0.00 32 1011.2
20180821044537 62 327 4.0 8.0 0.00 0.00 0.00 31 1011.1
20180821044036 63 296 5.0 12.0 0.00 0.00 0.00 31 1011.1
20180821043535 63 276 5.0 12.0 0.00 0.00 0.00 31 1011.1
20180821043033 62 292 4.0 11.0 0.00 0.00 0.00 31 1011.1
20180821042532 62 264 5.0 12.0 0.00 0.00 0.00 31 1011.2
20180821042031 62 244 5.0 12.0 0.00 0.00 0.00 31 1011.2
20180821041530 63 254 7.0 14.0 0.00 0.00 0.00 30 1011.2
20180821041029 63 241 5.0 12.0 0.00 0.00 0.00 30 1011.1
20180821040528 64 303 4.0 9.0 0.00 0.00 0.00 31 1011.2
20180821040027 65 240 5.0 13.0 0.00 0.00 0.00 31 1011.3
20180821035526 65 229 3.0 9.0 0.00 0.00 0.00 32 1011.3
20180821035025 64 296 3.0 9.0 0.00 0.00 0.00 31 1011.3
20180821034524 63 270 5.0 14.0 0.00 0.00 0.00 31 1011.4
20180821034023 62 234 6.0 17.0 0.00 0.00 0.00 31 1011.3
20180821033521 62 255 7.0 21.0 0.00 0.00 0.00 31 1011.4
20180821033020 62 296 4.0 9.0 0.00 0.00 0.00 31 1011.4
20180821032519 62 275 6.0 15.0 0.00 0.00 0.00 32 1011.4
20180821032018 61 221 7.0 16.0 0.00 0.00 0.00 34 1011.4
20180821031517 61 225 7.0 18.0 0.00 0.00 0.00 34 1011.5
20180821031016 61 237 3.0 7.0 0.00 0.00 0.00 32 1011.6
20180821030615 62 265 4.0 9.0 0.00 0.00 0.00 31 1011.6
20180821030114 63 225 5.0 15.0 0.00 0.00 0.00 30 1011.7
20180821025612 62 250 4.0 12.0 0.00 0.00 0.00 31 1011.7
20180821025111 62 247 6.0 15.0 0.00 0.00 0.00 30 1011.8
20180821024610 63 236 8.0 20.0 0.00 0.00 0.00 30 1012.0
20180821024109 63 293 4.0 12.0 0.00 0.00 0.00 30 1012.0
20180821023608 64 319 5.0 10.0 0.00 0.00 0.00 31 1012.2
20180821023107 63 317 2.0 5.0 0.00 0.00 0.00 31 1012.1
20180821022606 62 232 5.0 17.0 0.00 0.00 0.00 31 1012.3
20180821022104 62 255 6.0 12.0 0.00 0.00 0.00 31 1012.4
20180821021604 62 250 5.0 14.0 0.00 0.00 0.00 30 1012.4
20180821021103 63 272 4.0 12.0 0.00 0.00 0.00 30 1012.6
20180821020602 62 334 3.0 7.0 0.00 0.00 0.00 32 1012.6
20180821020100 61 253 5.0 14.0 0.00 0.00 0.00 31 1012.8
20180821015559 61 283 6.0 13.0 0.00 0.00 0.00 31 1012.9
20180821015058 62 276 6.0 15.0 0.00 0.00 0.00 30 1013.0
20180821014557 62 333 5.0 10.0 0.00 0.00 0.00 29 1013.0
20180821014056 62 323 4.0 12.0 0.00 0.00 0.00 29 1013.1
20180821013555 62 317 5.0 14.0 0.00 0.00 0.00 30 1013.2
20180821013053 62 309 5.0 9.0 0.00 0.00 0.00 30 1013.2
20180821012552 62 273 4.0 12.0 0.00 0.00 0.00 30 1013.4
20180821012049 62 216 5.0 13.0 0.00 0.00 0.00 30 1013.5
20180821011548 61 236 4.0 15.0 0.00 0.00 0.00 31 1013.6
20180821011047 61 272 4.0 10.0 0.00 0.00 0.00 32 1013.6
20180821010546 60 226 6.0 15.0 0.00 0.00 0.00 33 1013.7
20180821010045 60 273 6.0 14.0 0.00 0.00 0.00 33 1013.7
20180821005544 60 224 9.0 19.0 0.00 0.00 0.00 33 1013.8
20180821005043 60 236 6.0 16.0 0.00 0.00 0.00 33 1013.8
20180821004542 60 305 5.0 12.0 0.00 0.00 0.00 34 1014.0
20180821004041 59 284 4.0 12.0 0.00 0.00 0.00 34 1014.1
20180821003540 58 290 4.0 12.0 0.00 0.00 0.00 36 1014.1
20180821003038 58 244 4.0 10.0 0.00 0.00 0.00 36 1014.1
20180821002537 58 253 6.0 14.0 0.00 0.00 0.00 37 1014.2
20180821002036 58 303 6.0 13.0 0.00 0.00 0.00 37 1014.1
20180821001536 57 279 4.0 12.0 0.00 0.00 0.00 38 1014.1
20180821001034 57 247 6.0 12.0 0.00 0.00 0.00 38 1014.2
20180821000533 57 304 7.0 19.0 0.00 0.00 0.00 38 1014.2
20180821000032 57 311 4.0 8.0 0.00 0.00 0.00 38 1014.3
20180820235531 57 292 6.0 12.0 0.00 0.00 0.00 38 1014.3
20180820235030 57 285 4.0 12.0 0.00 0.00 0.00 40 1014.4
20180820234529 56 222 4.0 9.0 0.00 0.00 0.00 42 1014.3
20180820234027 55 256 4.0 10.0 0.00 0.00 0.00 42 1014.3
20180820233526 54 286 6.0 12.0 0.00 0.00 0.00 42 1014.3
20180820233025 54 297 5.0 12.0 0.00 0.00 0.00 44 1014.4
20180820232524 53 305 4.0 9.0 0.00 0.00 0.00 46 1014.5
20180820232023 52 343 3.0 9.0 0.00 0.00 0.00 48 1014.5
20180820231516 52 281 4.0 8.0 0.00 0.00 0.00 49 1014.5
20180820231115 52 296 5.0 11.0 0.00 0.00 0.00 49 1014.6
20180820230614 52 285 4.0 10.0 0.00 0.00 0.00 49 1014.6
20180820230113 51 287 3.0 8.0 0.00 0.00 0.00 49 1014.6
20180820225612 51 327 5.0 11.0 0.00 0.00 0.00 50 1014.6
20180820225111 51 324 2.0 8.0 0.00 0.00 0.00 50 1014.5
20180820224600 51 266 4.0 8.0 0.00 0.00 0.00 51 1014.6
20180820224059 51 309 3.0 8.0 0.00 0.00 0.00 50 1014.6
20180820223554 51 255 3.0 9.0 0.00 0.00 0.00 50 1014.6
20180820223050 50 285 3.0 6.0 0.00 0.00 0.00 51 1014.7
20180820222547 50 336 2.0 8.0 0.00 0.00 0.00 51 1014.8
20180820222040 49 311 2.0 5.0 0.00 0.00 0.00 53 1014.8
20180820221539 49 298 1.0 5.0 0.00 0.00 0.00 55 1014.8
20180820221038 48 243 2.0 5.0 0.00 0.00 0.00 56 1014.8
20180820220537 48 308 1.0 3.0 0.00 0.00 0.00 59 1014.8
20180820220036 46 294 1.0 3.0 0.00 0.00 0.00 61 1014.8
20180820215535 45 337 0.0 1.0 0.00 0.00 0.00 62 1014.7
20180820215028 44 112 0.0 1.0 0.00 0.00 0.00 63 1014.7
20180820214527 44 315 0.0 1.0 0.00 0.00 0.00 65 1014.6
20180820214026 43 315 0.0 1.0 0.00 0.00 0.00 68 1014.6
20180820213525 43 0.0 0.0 0.00 0.00 0.00 69 1014.5
20180820213024 42 239 0.0 1.0 0.00 0.00 0.00 70 1014.6
20180820212523 41 225 0.0 1.0 0.00 0.00 0.00 70 1014.5
20180820212016 41 225 0.0 2.0 0.00 0.00 0.00 70 1014.6
20180820211515 41 288 0.0 1.0 0.00 0.00 0.00 71 1014.6
20180820211114 41 84 0.0 2.0 0.00 0.00 0.00 72 1014.7
20180820210613 40 71 0.0 1.0 0.00 0.00 0.00 72 1014.7
20180820210112 40 86 1.0 2.0 0.00 0.00 0.00 72 1014.5
20180820205611 40 106 1.0 3.0 0.00 0.00 0.00 71 1014.4
20180820205106 41 47 1.0 3.0 0.00 0.00 0.00 70 1014.4
20180820204559 41 69 0.0 2.0 0.00 0.00 0.00 70 1014.3
20180820204052 41 0.0 0.0 0.00 0.00 0.00 70 1014.3
20180820203548 41 0.0 0.0 0.00 0.00 0.00 70 1014.3
20180820203047 41 72 0.0 2.0 0.00 0.00 0.00 71 1014.3
20180820202541 41 80 0.0 2.0 0.00 0.00 0.00 71 1014.4
20180820202039 40 235 2.0 4.0 0.00 0.00 0.00 72 1014.2
20180820201538 39 266 2.0 3.0 0.00 0.00 0.00 71 1014.2
20180820201037 40 225 1.0 3.0 0.00 0.00 0.00 71 1014.1
20180820200536 41 330 0.0 2.0 0.00 0.00 0.00 70 1014.2
20180820200035 41 62 0.0 2.0 0.00 0.00 0.00 70 1014.3
20180820195531 41 101 0.0 2.0 0.00 0.00 0.00 71 1014.2
20180820195027 40 293 0.0 2.0 0.00 0.00 0.00 70 1014.2
20180820194526 40 219 0.0 2.0 0.00 0.00 0.00 67 1014.1
20180820194025 41 260 1.0 3.0 0.00 0.00 0.00 65 1014.1
20180820193524 42 339 0.0 2.0 0.00 0.00 0.00 65 1014.3
20180820193023 42 72 1.0 3.0 0.00 0.00 0.00 64 1014.3
20180820192516 43 45 1.0 3.0 0.00 0.00 0.00 65 1014.1
20180820192015 42 54 1.0 3.0 0.00 0.00 0.00 67 1014.0
20180820191614 41 99 1.0 2.0 0.00 0.00 0.00 70 1013.9
20180820191113 41 135 0.0 2.0 0.00 0.00 0.00 70 1013.8
20180820190612 40 315 1.0 3.0 0.00 0.00 0.00 71 1014.0
20180820190111 39 248 0.0 2.0 0.00 0.00 0.00 71 1014.0
20180820185559 39 0 0.0 1.0 0.00 0.00 0.00 71 1013.9
20180820185058 39 0 0.0 1.0 0.00 0.00 0.00 69 1014.0
20180820184552 40 0 0.0 1.0 0.00 0.00 0.00 69 1014.0
20180820184048 40 0 0.0 1.0 0.00 0.00 0.00 68 1014.1
20180820183547 40 0 0.0 1.0 0.00 0.00 0.00 68 1014.1
20180820183040 40 135 0.0 1.0 0.00 0.00 0.00 68 1014.1
20180820182539 40 267 0.0 1.0 0.00 0.00 0.00 67 1014.1
20180820182038 41 0 0.0 2.0 0.00 0.00 0.00 67 1014.2
20180820181537 41 73 0.0 2.0 0.00 0.00 0.00 69 1014.3
20180820181036 40 315 0.0 2.0 0.00 0.00 0.00 70 1014.1
20180820180534 40 202 0.0 2.0 0.00 0.00 0.00 70 1014.1
20180820180028 40 0.0 0.0 0.00 0.00 0.00 69 1014.1
20180820175527 40 0 0.0 1.0 0.00 0.00 0.00 69 1014.2
20180820175026 40 0 0.0 2.0 0.00 0.00 0.00 67 1014.3
20180820174525 41 337 0.0 2.0 0.00 0.00 0.00 65 1014.4
20180820174024 41 315 0.0 2.0 0.00 0.00 0.00 64 1014.5
20180820173523 41 0.0 0.0 0.00 0.00 0.00 64 1014.6
20180820173016 41 90 0.0 1.0 0.00 0.00 0.00 65 1014.5
20180820172515 41 45 0.0 1.0 0.00 0.00 0.00 64 1014.6
20180820172114 41 50 0.0 1.0 0.00 0.00 0.00 62 1014.7
20180820171613 42 90 0.0 2.0 0.00 0.00 0.00 61 1014.7
20180820171112 42 0.0 0.0 0.00 0.00 0.00 60 1014.8
20180820170611 43 135 0.0 1.0 0.00 0.00 0.00 59 1014.8
20180820170100 43 315 0.0 1.0 0.00 0.00 0.00 59 1014.9
20180820165558 43 0 0.0 1.0 0.00 0.00 0.00 59 1014.9
20180820165053 43 0 0.0 3.0 0.00 0.00 0.00 59 1014.8
20180820164551 43 225 0.0 2.0 0.00 0.00 0.00 59 1014.9
20180820164050 43 355 1.0 3.0 0.00 0.00 0.00 59 1015.0
20180820163549 43 287 0.0 2.0 0.00 0.00 0.00 59 1015.1
20180820163048 44 342 0.0 2.0 0.00 0.00 0.00 57 1015.1
20180820162547 44 300 0.0 1.0 0.00 0.00 0.00 56 1015.3
20180820162040 44 232 0.0 3.0 0.00 0.00 0.00 56 1015.5
20180820161539 44 309 0.0 2.0 0.00 0.00 0.00 56 1015.4
20180820161039 44 275 0.0 3.0 0.00 0.00 0.00 56 1015.4
20180820160537 44 115 0.0 2.0 0.00 0.00 0.00 57 1015.3
20180820160036 44 209 0.0 1.0 0.00 0.00 0.00 58 1015.3
20180820155535 44 243 1.0 3.0 0.00 0.00 0.00 60 1015.4
20180820155028 43 256 2.0 4.0 0.00 0.00 0.00 64 1015.4
20180820154527 41 271 1.0 5.0 0.00 0.00 0.00 66 1015.3
20180820154026 41 320 0.0 3.0 0.00 0.00 0.00 68 1015.5
20180820153525 41 5 0.0 2.0 0.00 0.00 0.00 70 1015.7
20180820153024 40 315 0.0 2.0 0.00 0.00 0.00 72 1015.8
20180820152523 40 350 0.0 2.0 0.00 0.00 0.00 73 1015.8
20180820152016 40 0.0 0.0 0.00 0.00 0.00 74 1015.9
20180820151615 41 0 0.0 1.0 0.00 0.00 0.00 73 1016.0
20180820151114 41 0 0.0 1.0 0.00 0.00 0.00 73 1016.1
20180820150613 40 180 0.0 1.0 0.00 0.00 0.00 75 1016.0
20180820150112 40 156 0.0 1.0 0.00 0.00 0.00 76 1016.2
20180820145611 40 135 0.0 1.0 0.00 0.00 0.00 77 1016.1
20180820145106 40 80 0.0 2.0 0.00 0.00 0.00 78 1016.1
20180820144559 39 90 0.0 2.0 0.00 0.00 0.00 77 1016.1
20180820144055 40 90 0.0 1.0 0.00 0.00 0.00 77 1016.3
20180820143550 40 0.0 0.0 0.00 0.00 0.00 77 1016.3
20180820143040 40 0 0.0 1.0 0.00 0.00 0.00 77 1016.3
20180820142539 41 0 0.0 1.0 0.00 0.00 0.00 76 1016.3
20180820142038 41 90 0.0 1.0 0.00 0.00 0.00 76 1016.3
20180820141537 40 135 0.0 1.0 0.00 0.00 0.00 77 1016.4
20180820141036 40 0.0 0.0 0.00 0.00 0.00 76 1016.4
20180820140535 41 0.0 0.0 0.00 0.00 0.00 77 1016.4
20180820140028 41 0.0 1.0 0.00 0.00 0.00 78 1016.5
20180820135528 40 117 0.0 1.0 0.00 0.00 0.00 79 1016.6
20180820135026 40 90 0.0 1.0 0.00 0.00 0.00 80 1016.8
20180820134525 40 49 0.0 1.0 0.00 0.00 0.00 80 1016.9
20180820134024 40 45 0.0 2.0 0.00 0.00 0.00 80 1016.9
20180820133523 40 75 0.0 2.0 0.00 0.00 0.00 80 1016.9
20180820133017 40 0 0.0 2.0 0.00 0.00 0.00 80 1017.0
20180820132516 40 0 0.0 1.0 0.00 0.00 0.00 79 1017.0
20180820132115 40 0.0 0.0 0.00 0.00 0.00 79 1017.1
20180820131614 40 0.0 0.0 0.00 0.00 0.00 79 1017.2
20180820131112 40 0.0 0.0 0.00 0.00 0.00 79 1017.3
20180820130612 40 0.0 0.0 0.00 0.00 0.00 79 1017.4
20180820130100 40 0.0 0.0 0.00 0.00 0.00 78 1017.4
20180820125559 40 0.0 0.0 0.00 0.00 0.00 78 1017.6
20180820125054 40 0.0 0.0 0.00 0.00 0.00 77 1017.6
20180820124551 41 0.0 0.0 0.00 0.00 0.00 76 1017.6
20180820124047 41 0.0 0.0 0.00 0.00 0.00 76 1017.6
20180820123540 41 0.0 0.0 0.00 0.00 0.00 76 1017.7
20180820123039 41 0.0 0.0 0.00 0.00 0.00 76 1017.7
20180820122538 41 0.0 0.0 0.00 0.00 0.00 76 1017.8
20180820122037 41 0.0 0.0 0.00 0.00 0.00 75 1017.8
20180820121536 41 0.0 0.0 0.00 0.00 0.00 75 1017.8
20180820121035 41 0.0 0.0 0.00 0.00 0.00 75 1017.9
20180820120528 41 0.0 0.0 0.00 0.00 0.00 74 1017.9
20180820120027 41 0.0 0.0 0.00 0.00 0.00 74 1017.9
20180820115526 41 0.0 0.0 0.00 0.00 0.00 74 1018.0
20180820115025 41 0.0 0.0 0.00 0.00 0.00 74 1018.0
20180820114524 41 0.0 0.0 0.00 0.00 0.00 74 1018.0
20180820114023 42 0.0 1.0 0.00 0.00 0.00 73 1018.0
20180820113516 42 0.0 0.0 0.00 0.00 0.00 73 1018.0
20180820113115 42 0.0 0.0 0.00 0.00 0.00 73 1018.0
20180820112614 42 0 0.0 1.0 0.00 0.00 0.00 73 1018.0
20180820112113 42 0.0 0.0 0.00 0.00 0.00 73 1018.0
20180820111612 42 90 0.0 0.0 0.00 0.00 0.00 72 1018.1
20180820111111 43 0.0 0.0 0.00 0.00 0.00 72 1018.0
20180820110600 43 0.0 0.0 0.00 0.00 0.00 72 1018.0
20180820110059 43 23 0.0 2.0 0.00 0.00 0.00 71 1018.0
20180820105552 43 0.0 0.0 0.00 0.00 0.00 70 1017.9
20180820105051 43 0.0 0.0 0.00 0.00 0.00 70 1017.9
20180820104550 43 0.0 0.0 0.00 0.00 0.00 70 1017.9
20180820104048 43 0.0 0.0 0.00 0.00 0.00 70 1017.9
20180820103547 43 0.0 0.0 0.00 0.00 0.00 69 1017.9
20180820103040 44 22 0.0 1.0 0.00 0.00 0.00 69 1018.0
20180820102539 44 90 0.0 1.0 0.00 0.00 0.00 69 1018.0
20180820102038 44 135 0.0 1.0 0.00 0.00 0.00 69 1018.1
20180820101537 44 315 0.0 1.0 0.00 0.00 0.00 68 1018.1
20180820101036 44 0 0.0 1.0 0.00 0.00 0.00 67 1018.0
20180820100535 44 0.0 0.0 0.00 0.00 0.00 67 1018.0
20180820100028 44 0 0.0 1.0 0.00 0.00 0.00 67 1018.0
20180820095527 44 0 0.0 1.0 0.00 0.00 0.00 65 1018.0
20180820095026 45 0.0 0.0 0.00 0.00 0.00 64 1018.2
20180820094525 45 0.0 0.0 0.00 0.00 0.00 64 1018.1
20180820094024 45 0.0 0.0 0.00 0.00 0.00 64 1018.2
20180820093523 45 45 0.0 0.0 0.00 0.00 0.00 63 1018.1
20180820093016 46 225 0.0 2.0 0.00 0.00 0.00 62 1018.1
20180820092515 46 90 0.0 1.0 0.00 0.00 0.00 63 1018.0
20180820092115 46 329 0.0 1.0 0.00 0.00 0.00 63 1018.0
20180820091613 46 90 0.0 2.0 0.00 0.00 0.00 63 1018.0
20180820091112 46 90 0.0 2.0 0.00 0.00 0.00 62 1018.0
20180820090611 47 90 0.0 2.0 0.00 0.00 0.00 62 1018.1
20180820090100 47 0 0.0 1.0 0.00 0.00 0.00 62 1018.1
20180820085558 47 0 0.0 1.0 0.00 0.00 0.00 60 1018.0
20180820085052 47 0.0 0.0 0.00 0.00 0.00 59 1018.0
20180820084550 47 0.0 0.0 0.00 0.00 0.00 58 1017.9
20180820084049 48 0.0 0.0 0.00 0.00 0.00 57 1018.0
20180820083547 48 0.0 0.0 0.00 0.00 0.00 56 1018.0
20180820083040 48 0.0 0.0 0.00 0.00 0.00 55 1017.9
20180820082539 49 0.0 0.0 0.00 0.00 0.00 55 1017.8
20180820082038 49 45 0.0 0.0 0.00 0.00 0.00 54 1017.7